Location: Unspecified
(0.0000°N, 0.0000°E)
Time: 22:22:17
(UTC+00:00)

COSMOS 2454 - Visible Passes

Search period start: 06 June 2023 00:00
Search period end: 16 June 2023 00:00
Orbit: 915 x 943 km, 83.0° (Epoch: 06 June)

Date Brightness Start Highest point End Pass type
(mag) Time Alt. Az. Time Alt. Az. Time Alt. Az.
06 Jun 6.3 04:53:25 10° N 04:59:18 69° W 05:05:12 10° S visible
07 Jun 9.1 03:24:14 10° ENE 03:26:46 13° E 03:29:18 10° ESE visible
07 Jun 6.7 05:05:16 10° NNW 05:10:49 43° W 05:16:25 10° SSW visible
08 Jun 8.6 03:33:55 10° NE 03:38:18 21° E 03:42:41 10° SE visible
08 Jun 7.3 05:17:30 10° NW 05:22:21 27° W 05:27:16 10° SSW visible
09 Jun 7.8 03:44:31 10° NNE 03:49:50 34° E 03:55:08 10° SSE visible
09 Jun 7.8 05:30:19 10° NW 05:33:54 17° W 05:37:31 10° SW visible
10 Jun 6.9 03:55:35 10° N 04:01:21 55° E 04:07:09 10° SSE visible
11 Jun 6.3 04:06:58 10° N 04:12:53 88° E 04:18:51 10° S visible
12 Jun 6.3 04:18:37 10° NNW 04:24:25 58° W 04:27:49 25° SSW visible
13 Jun 8.8 02:48:29 10° NE 02:51:54 16° E 02:53:49 14° ESE visible
13 Jun 6.9 04:30:36 10° NNW 04:35:57 36° W 04:37:22 32° WSW visible
14 Jun 8.1 02:58:38 10° NNE 03:03:25 26° E 03:03:45 25° E visible
14 Jun 7.4 04:43:00 10° NW 04:47:19 23° W 04:47:19 23° W visible
15 Jun 7.6 03:09:26 10° NNE 03:13:56 38° ENE 03:13:56 38° ENE visible
15 Jun 8.1 04:56:13 10° WNW 04:57:31 12° WNW 04:57:31 12° WNW visible
